TimeCDT,TemperatureF,Dew PointF,Humidity,Sea Level PressureIn,VisibilityMPH,Wind Direction,Wind SpeedMPH,Gust SpeedMPH,PrecipitationIn,Events,Conditions,WindDirDegrees,DateUTC
12:13 AM,51.8,41.0,67,29.86,10.0,ENE,11.5,-,N/A,,Clear,60,2011-10-25 05:13:00
12:32 AM,51.8,41.0,67,29.84,10.0,ENE,11.5,-,N/A,,Clear,60,2011-10-25 05:32:00
12:52 AM,51.8,39.2,62,29.84,10.0,NE,11.5,-,N/A,,Clear,50,2011-10-25 05:52:00
1:13 AM,51.8,41.0,67,29.82,10.0,NE,10.4,-,N/A,,Clear,50,2011-10-25 06:13:00
1:32 AM,51.8,42.8,71,29.81,10.0,ENE,11.5,-,N/A,,Clear,60,2011-10-25 06:32:00
1:52 AM,51.8,42.8,71,29.81,10.0,NE,10.4,-,N/A,,Clear,50,2011-10-25 06:52:00
2:12 AM,51.8,42.8,71,29.80,10.0,ENE,9.2,-,N/A,,Clear,60,2011-10-25 07:12:00
2:32 AM,50.0,42.8,76,29.78,10.0,ENE,10.4,-,N/A,,Clear,60,2011-10-25 07:32:00
2:52 AM,51.8,42.8,71,29.78,10.0,ENE,11.5,-,N/A,,Clear,60,2011-10-25 07:52:00
3:12 AM,50.0,42.8,76,29.78,10.0,NE,9.2,-,N/A,,Clear,50,2011-10-25 08:12:00
3:32 AM,50.0,42.8,76,29.77,10.0,NE,9.2,-,N/A,,Clear,40,2011-10-25 08:32:00
3:52 AM,48.2,42.8,82,29.77,10.0,NNE,10.4,-,N/A,,Clear,30,2011-10-25 08:52:00
4:12 AM,48.2,42.8,82,29.77,10.0,NNE,10.4,-,N/A,,Clear,30,2011-10-25 09:12:00
4:32 AM,48.2,42.8,82,29.76,10.0,NE,10.4,-,N/A,,Clear,40,2011-10-25 09:32:00
4:52 AM,48.2,42.8,82,29.76,10.0,NE,11.5,-,N/A,,Clear,40,2011-10-25 09:52:00
5:12 AM,48.2,42.8,82,29.77,10.0,NNE,11.5,-,N/A,,Clear,20,2011-10-25 10:12:00
5:33 AM,46.4,42.8,87,29.77,10.0,NNE,10.4,-,N/A,,Clear,20,2011-10-25 10:33:00
5:52 AM,46.4,42.8,87,29.77,10.0,NNE,12.7,-,N/A,,Clear,20,2011-10-25 10:52:00
6:12 AM,46.4,44.6,93,29.77,10.0,NNE,11.5,-,N/A,,Clear,20,2011-10-25 11:12:00
6:32 AM,46.4,44.6,93,29.76,10.0,NNE,11.5,-,N/A,,Clear,20,2011-10-25 11:32:00
6:52 AM,46.4,44.6,93,29.76,10.0,NNE,13.8,-,N/A,,Clear,30,2011-10-25 11:52:00
7:12 AM,46.4,44.6,93,29.75,10.0,NNE,13.8,17.3,N/A,,Clear,30,2011-10-25 12:12:00
7:32 AM,48.2,44.6,87,29.74,10.0,NE,13.8,17.3,N/A,,Clear,40,2011-10-25 12:32:00
7:52 AM,48.2,42.8,82,29.74,10.0,NE,15.0,20.7,N/A,,Clear,50,2011-10-25 12:52:00
8:13 AM,48.2,42.8,82,29.73,10.0,NE,13.8,19.6,N/A,,Clear,50,2011-10-25 13:13:00
8:32 AM,48.2,42.8,82,29.78,10.0,NNE,11.5,-,N/A,,Clear,30,2011-10-25 13:32:00
8:52 AM,48.2,42.8,82,29.78,10.0,NNE,11.5,16.1,N/A,,Clear,30,2011-10-25 13:52:00
9:13 AM,50.0,42.8,76,29.77,10.0,NE,15.0,19.6,N/A,,Clear,40,2011-10-25 14:13:00
9:32 AM,51.8,42.8,71,29.77,10.0,NNE,12.7,19.6,N/A,,Clear,30,2011-10-25 14:32:00
9:52 AM,51.8,42.8,71,29.78,10.0,NNE,13.8,23.0,N/A,,Clear,30,2011-10-25 14:52:00
10:12 AM,51.8,42.8,71,29.78,10.0,NNE,13.8,19.6,N/A,,Clear,30,2011-10-25 15:12:00
10:32 AM,53.6,42.8,67,29.78,10.0,NNE,15.0,21.9,N/A,,Clear,30,2011-10-25 15:32:00
10:52 AM,53.6,42.8,67,29.78,10.0,NNE,18.4,23.0,N/A,,Clear,30,2011-10-25 15:52:00
11:13 AM,55.4,42.8,63,29.79,10.0,NNE,16.1,23.0,N/A,,Clear,30,2011-10-25 16:13:00
11:32 AM,55.4,42.8,63,29.78,10.0,NNE,16.1,27.6,N/A,,Clear,30,2011-10-25 16:32:00
11:52 AM,57.2,42.8,59,29.79,10.0,NNE,20.7,26.5,N/A,,Clear,30,2011-10-25 16:52:00
12:12 PM,57.2,42.8,59,29.79,10.0,NNE,17.3,25.3,N/A,,Clear,20,2011-10-25 17:12:00
12:32 PM,57.2,42.8,59,29.78,10.0,NNE,19.6,26.5,N/A,,Clear,20,2011-10-25 17:32:00
12:52 PM,57.2,41.0,55,29.78,10.0,NNE,20.7,24.2,N/A,,Clear,20,2011-10-25 17:52:00
1:13 PM,57.2,41.0,55,29.78,10.0,NNE,18.4,25.3,N/A,,Clear,30,2011-10-25 18:13:00
1:32 PM,59.0,41.0,51,29.79,10.0,NNE,19.6,27.6,N/A,,Clear,30,2011-10-25 18:32:00
1:52 PM,59.0,41.0,51,29.80,10.0,North,18.4,28.8,N/A,,Clear,360,2011-10-25 18:52:00
2:06 PM,59.0,41.0,51,29.81,10.0,North,20.7,26.5,N/A,,Clear,10,2011-10-25 19:06:00
2:31 PM,59.0,41.0,51,29.83,10.0,North,21.9,26.5,N/A,,Clear,360,2011-10-25 19:31:00
2:52 PM,60.8,41.0,48,29.83,10.0,North,24.2,29.9,N/A,,Clear,10,2011-10-25 19:52:00
3:12 PM,60.8,41.0,48,29.82,10.0,NNE,23.0,27.6,N/A,,Clear,20,2011-10-25 20:12:00
3:32 PM,59.0,39.2,48,29.84,10.0,North,23.0,29.9,N/A,,Clear,10,2011-10-25 20:32:00
3:52 PM,59.0,39.2,48,29.84,10.0,North,17.3,28.8,N/A,,Clear,360,2011-10-25 20:52:00
4:12 PM,59.0,39.2,48,29.86,10.0,North,19.6,28.8,N/A,,Clear,350,2011-10-25 21:12:00
4:32 PM,57.2,39.2,51,29.88,10.0,North,21.9,27.6,N/A,,Clear,350,2011-10-25 21:32:00
4:52 PM,57.2,39.2,51,29.89,10.0,North,19.6,25.3,N/A,,Clear,10,2011-10-25 21:52:00
5:12 PM,55.4,39.2,54,29.90,10.0,North,21.9,28.8,N/A,,Scattered Clouds,10,2011-10-25 22:12:00
5:32 PM,55.4,39.2,54,29.91,10.0,North,19.6,27.6,N/A,,Scattered Clouds,360,2011-10-25 22:32:00
5:52 PM,55.4,39.2,54,29.92,10.0,North,18.4,28.8,N/A,,Mostly Cloudy,10,2011-10-25 22:52:00
6:12 PM,53.6,39.2,58,29.92,10.0,North,19.6,26.5,N/A,,Overcast,10,2011-10-25 23:12:00
6:32 PM,53.6,39.2,58,29.93,10.0,NNE,16.1,23.0,N/A,,Scattered Clouds,20,2011-10-25 23:32:00
6:52 PM,51.8,39.2,62,29.93,10.0,NNE,15.0,21.9,N/A,,Clear,20,2011-10-25 23:52:00
7:12 PM,50.0,39.2,66,29.95,10.0,North,10.4,-,N/A,,Clear,10,2011-10-26 00:12:00
7:32 PM,48.2,37.4,66,29.96,10.0,North,9.2,-,N/A,,Clear,360,2011-10-26 00:32:00
7:52 PM,46.4,37.4,71,29.98,10.0,NNW,9.2,-,N/A,,Clear,340,2011-10-26 00:52:00
8:12 PM,46.4,37.4,71,29.98,10.0,NNW,10.4,-,N/A,,Clear,340,2011-10-26 01:12:00
8:32 PM,46.4,35.6,66,30.00,10.0,NNW,12.7,-,N/A,,Scattered Clouds,330,2011-10-26 01:32:00
8:52 PM,46.4,37.4,71,30.01,10.0,NNW,13.8,-,N/A,,Overcast,330,2011-10-26 01:52:00
9:12 PM,46.4,37.4,71,30.02,10.0,North,12.7,-,N/A,,Overcast,350,2011-10-26 02:12:00
9:32 PM,46.4,37.4,71,30.02,10.0,NNW,11.5,-,N/A,,Mostly Cloudy,340,2011-10-26 02:32:00
9:53 PM,46.4,37.4,71,30.03,10.0,NNW,10.4,-,N/A,,Mostly Cloudy,340,2011-10-26 02:53:00
10:12 PM,46.4,37.4,71,30.02,10.0,North,11.5,-,N/A,,Overcast,350,2011-10-26 03:12:00
10:52 PM,46.4,37.4,71,30.02,10.0,North,13.8,-,N/A,,Overcast,350,2011-10-26 03:52:00
11:12 PM,46.4,37.4,71,30.02,10.0,North,11.5,-,N/A,,Overcast,10,2011-10-26 04:12:00
11:32 PM,46.4,37.4,71,30.02,10.0,North,10.4,-,N/A,,Overcast,350,2011-10-26 04:32:00
11:52 PM,46.4,37.4,71,30.02,10.0,North,8.1,-,N/A,,Overcast,360,2011-10-26 04:52:00